Location: Misciano
(43.5000°N, 11.9500°E)
Time: 16:22:53
(UTC+00:00)

Meteor 1-18 Rocket - Pass Details

Date: 13 August 2020
Orbit: 836 x 910 km, 81.2° (Epoch: 18 September)

Event Time Altitude Azimuth Distance (km) Brightness Sun altitude
Rises 20:34:00 0° 347° (NNW) 3,412 8.4 -21.2°
Reaches altitude 10° 20:36:26 10° 346° (NNW) 2,467 7.5 -21.5°
Maximum altitude 20:41:59 74° 263° (W) 873 4.3 -22.2°
Enters shadow 20:44:11 38° 187° (S) 1,260 4.7 -22.5°
